Miami, FL

10:58 PM EDT on September 26, 2016 (GMT -0400)
Miami International

Weather History for KMIA - October, 2013

Change the Weather History Date:

Sunday, October 20, 2013

  Actual Average Record
Temperature  
Mean Temperature 84 °F 79 °F  
Max Temperature 90 °F 86 °F 91 °F (1910)
Min Temperature 77 °F 73 °F 54 °F (1927)
Degree Days  
Heating Degree Days 0 0  
Month to date heating degree days 0 0  
Since 1 July heating degree days 0 0  
Cooling Degree Days 19 14  
Month to date cooling degree days 331 315  
Year to date cooling degree days 4009 3927  
Growing Degree Days 34 (Base 50)    
Moisture  
Dew Point 74 °F    
Average Humidity 70    
Maximum Humidity 85    
Minimum Humidity 55    
Precipitation  
Precipitation 0.15 in 0.17 in 5.72 in (1926)
Month to date precipitation 5.80 4.68  
Year to date precipitation 58.95 54.94  
Snow  
Snow 0.00 in - - ()
Month to date snowfall 0.0  
Since 1 July snowfall 0.0  
Since 1 September snowfall 0.0  
Snow Depth 0.00 in    
Sea Level Pressure  
Sea Level Pressure 29.94 in    
Wind  
Wind Speed 2 mph (SSE)    
Max Wind Speed 9 mph    
Max Gust Speed 18 mph    
Visibility 10 miles    
Events Rain    
T = Trace of Precipitation, MM = Missing Value Source: NWS Daily Summary

Daily Weather History Graph

Daily Weather History Graph

Search for Another Location

Airport or City:

Trip Planner

Search our weather history database for the weather conditions in past years. The results will help you decide how hot, cold, wet, or windy it might be!

Date:

Astronomy

Oct. 20, 2013 Rise Set
Actual Time 7:22 AM EDT 6:48 PM EDT
Civil Twilight 6:59 AM EDT 7:12 PM EDT
Nautical Twilight 6:32 AM EDT 7:39 PM EDT
Astronomical Twilight 6:05 AM EDT 8:05 PM EDT
Moon 8:07 PM EDT (10/20) 8:49 AM EDT (10/20)
Length of Visible Light 12h 12m
Length of Day
11h 26m
Full, 97% of the Moon is Illuminated
Oct 20
Full
Oct 26
Last Quarter
Nov 3
New
Nov 10
First Quarter
Nov 17
Full

Hourly Weather History & Observations

Time (EDT) Temp. Heat Index Dew Point Humidity Pressure Visibility Wind Dir Wind Speed Gust Speed Precip Events Conditions
12:53 AM 81.0 °F 86.2 °F 73.9 °F 79% 29.94 in 10.0 mi Calm Calm - N/A   Overcast
1:53 AM 80.1 °F 84.5 °F 73.9 °F 81% 29.93 in 10.0 mi SSW 3.5 mph - N/A   Mostly Cloudy
2:53 AM 78.1 °F - 71.1 °F 79% 29.91 in 10.0 mi Calm Calm - N/A   Scattered Clouds
3:53 AM 78.1 °F - 72.0 °F 81% 29.90 in 10.0 mi Calm Calm - N/A   Scattered Clouds
4:53 AM 78.1 °F - 72.0 °F 81% 29.90 in 10.0 mi Calm Calm - N/A   Scattered Clouds
5:53 AM 78.1 °F - 73.0 °F 84% 29.91 in 10.0 mi Calm Calm - N/A   Scattered Clouds
6:53 AM 78.1 °F - 73.0 °F 84% 29.92 in 10.0 mi Calm Calm - N/A   Partly Cloudy
7:53 AM 78.1 °F - 73.9 °F 87% 29.94 in 10.0 mi Calm Calm - N/A   Partly Cloudy
8:53 AM 81.0 °F 87.3 °F 75.9 °F 85% 29.95 in 10.0 mi Calm Calm - N/A   Clear
9:41 AM 82.4 °F 89.5 °F 75.2 °F 79% 29.95 in 10.0 mi SSW 5.8 mph - N/A   Mostly Cloudy
9:53 AM 82.9 °F 90.2 °F 75.0 °F 77% 29.96 in 10.0 mi South 5.8 mph - N/A   Mostly Cloudy
10:32 AM 84.2 °F 92.3 °F 75.2 °F 74% 29.95 in 10.0 mi Calm Calm - N/A   Scattered Clouds
10:53 AM 84.0 °F 89.0 °F 71.1 °F 65% 29.96 in 10.0 mi SW 5.8 mph - N/A   Scattered Clouds
11:53 AM 87.1 °F 93.6 °F 72.0 °F 61% 29.96 in 10.0 mi Calm Calm - N/A   Scattered Clouds
12:53 PM 88.0 °F 92.9 °F 70.0 °F 55% 29.95 in 10.0 mi Variable 3.5 mph - N/A   Scattered Clouds
1:53 PM 86.0 °F 95.1 °F 75.0 °F 70% 29.92 in 10.0 mi ESE 8.1 mph - N/A   Scattered Clouds
2:53 PM 84.9 °F 92.1 °F 73.9 °F 69% 29.91 in 10.0 mi ESE 9.2 mph - N/A   Scattered Clouds
3:53 PM 84.0 °F 91.2 °F 73.9 °F 72% 29.90 in 10.0 mi SSE 11.5 mph 18.4 mph 0.04 in Rain Light Rain
4:39 PM 80.6 °F 87.1 °F 77.0 °F 89% 29.91 in 8.0 mi Calm Calm - 0.16 in Rain Light Rain
4:53 PM 82.0 °F 90.2 °F 77.0 °F 85% 29.91 in 10.0 mi South 6.9 mph - 0.16 in Rain Light Rain
5:26 PM 82.4 °F 89.5 °F 75.2 °F 79% 29.91 in 10.0 mi ESE 10.4 mph 16.1 mph 0.00 in   Scattered Clouds
5:53 PM 82.0 °F 87.4 °F 73.0 °F 74% 29.92 in 10.0 mi ESE 8.1 mph - 0.00 in   Mostly Cloudy
6:53 PM 81.0 °F 86.2 °F 73.9 °F 79% 29.94 in 10.0 mi SSE 6.9 mph - N/A   Mostly Cloudy
7:53 PM 77.0 °F - 72.0 °F 84% 29.95 in 10.0 mi SE 8.1 mph - N/A   Overcast
8:53 PM 79.0 °F - 72.0 °F 79% 29.95 in 10.0 mi SE 8.1 mph - N/A   Overcast
9:53 PM 80.1 °F 84.2 °F 73.0 °F 79% 29.97 in 10.0 mi ESE 3.5 mph - N/A   Overcast
10:53 PM 81.0 °F 86.7 °F 75.0 °F 82% 29.98 in 10.0 mi ESE 4.6 mph - N/A   Overcast
11:53 PM 81.0 °F 86.7 °F 75.0 °F 82% 29.98 in 10.0 mi SE 4.6 mph - N/A   Overcast